| time (UTC) | temp C | wind direction | speed KPH | gust KPH | rain 1hr cm | rain 24hr cm | rain mn cm | humidity % | barometer mb |
| 20260505023011 | 2 | 355 | 1.6 | 9.7 | 0.00 | 0.00 | 0.00 | 59 | 1010.8 |
| 20260505021510 | 2 | 355 | 4.8 | 16.1 | 0.00 | 0.00 | 0.00 | 58 | 1010.6 |
| 20260505020010 | 2 | 5 | 4.8 | 8.0 | 0.00 | 0.00 | 0.00 | 59 | 1010.8 |
| 20260505014509 | 2 | 34 | 8.0 | 16.1 | 0.00 | 0.00 | 0.00 | 59 | 1010.7 |
| 20260505013010 | 2 | 329 | 3.2 | 14.5 | 0.00 | 0.00 | 0.00 | 59 | 1010.7 |
| 20260505011510 | 2 | 311 | 8.0 | 16.1 | 0.00 | 0.00 | 0.00 | 58 | 1010.7 |
| 20260505010009 | 3 | 340 | 3.2 | 14.5 | 0.00 | 0.00 | 0.00 | 59 | 1010.5 |
| 20260505004510 | 3 | 28 | 3.2 | 9.7 | 0.00 | 0.00 | 0.00 | 59 | 1010.6 |
| 20260505003010 | 3 | 5 | 4.8 | 9.7 | 0.00 | 0.00 | 0.00 | 60 | 1010.4 |
| 20260505001509 | 3 | 335 | 4.8 | 17.7 | 0.00 | 0.00 | 0.00 | 62 | 1010.3 |
| 20260505000011 | 4 | 355 | 8.0 | 16.1 | 0.00 | 0.00 | 0.00 | 63 | 1010.2 |
| 20260504234510 | 4 | 355 | 3.2 | 12.9 | 0.00 | 0.00 | 0.00 | 65 | 1010.0 |
| 20260504233010 | 4 | 302 | 4.8 | 14.5 | 0.00 | 0.00 | 0.00 | 67 | 1009.9 |
| 20260504231510 | 5 | 337 | 6.4 | 16.1 | 0.00 | 0.00 | 0.00 | 68 | 1009.8 |
| 20260504230011 | 5 | 308 | 6.4 | 16.1 | 0.00 | 0.00 | 0.00 | 69 | 1009.7 |
| 20260504224512 | 5 | 299 | 6.4 | 14.5 | 0.00 | 0.00 | 0.00 | 69 | 1009.7 |
| 20260504223024 | 5 | 325 | 4.8 | 12.9 | 0.00 | 0.00 | 0.00 | 74 | 1009.6 |
| 20260504221502 | 6 | 302 | 4.8 | 9.7 | 0.00 | 0.00 | 0.00 | 74 | 1009.5 |
| 20260504220015 | 6 | 294 | 3.2 | 11.3 | 0.00 | 0.00 | 0.00 | 73 | 1009.6 |
| 20260504214511 | 6 | 289 | 1.6 | 8.0 | 0.00 | 0.00 | 0.00 | 73 | 1009.4 |
| 20260504213021 | 6 | 286 | 6.4 | 14.5 | 0.00 | 0.00 | 0.00 | 73 | 1009.3 |
| 20260504211509 | 6 | 298 | 9.7 | 20.9 | 0.00 | 0.00 | 0.00 | 73 | 1009.2 |
| 20260504210011 | 7 | 252 | 9.7 | 19.3 | 0.00 | 0.00 | 0.00 | 74 | 1009.1 |
| 20260504204526 | 7 | 236 | 6.4 | 17.7 | 0.00 | 0.00 | 0.00 | 74 | 1009.0 |
| 20260504203015 | 7 | 259 | 9.7 | 22.5 | 0.00 | 0.00 | 0.00 | 73 | 1009.0 |
| 20260504201509 | 7 | 222 | 8.0 | 16.1 | 0.00 | 0.00 | 0.00 | 72 | 1008.8 |
| 20260504194509 | 8 | 252 | 9.7 | 24.1 | 0.00 | 0.00 | 0.00 | 69 | 1008.6 |
| 20260504190010 | 8 | 240 | 14.5 | 29.0 | 0.00 | 0.00 | 0.00 | 61 | 1008.4 |
| 20260504184511 | 9 | 244 | 12.9 | 27.4 | 0.00 | 0.00 | 0.00 | 60 | 1008.2 |
| 20260504183011 | 9 | 259 | 12.9 | 27.4 | 0.00 | 0.00 | 0.00 | 58 | 1008.1 |
| 20260504181513 | 10 | 248 | 12.9 | 41.8 | 0.00 | 0.00 | 0.00 | 58 | 1008.1 |
| 20260504180012 | 10 | 251 | 12.9 | 32.2 | 0.00 | 0.00 | 0.00 | 58 | 1008.1 |
| 20260504174510 | 10 | 268 | 19.3 | 30.6 | 0.00 | 0.00 | 0.00 | 56 | 1008.1 |
| 20260504173010 | 10 | 286 | 19.3 | 35.4 | 0.00 | 0.00 | 0.00 | 53 | 1008.2 |
| 20260504171511 | 10 | 285 | 8.0 | 30.6 | 0.00 | 0.00 | 0.00 | 54 | 1008.2 |
| 20260504081509 | 11 | 333 | 9.7 | 27.4 | 0.00 | 0.00 | 0.00 | 43 | 1007.6 |
| 20260504050009 | 4 | 20 | 3.2 | 8.0 | 0.00 | 0.00 | 0.00 | 81 | 1005.8 |
| 20260504044515 | 3 | 25 | 0.0 | 4.8 | 0.00 | 0.00 | 0.00 | 82 | 1005.8 |
| 20260504043017 | 3 | 25 | 3.2 | 9.7 | 0.00 | 0.00 | 0.00 | 82 | 1005.7 |
| 20260504041510 | 4 | 33 | 1.6 | 9.7 | 0.00 | 0.00 | 0.00 | 79 | 1005.4 |
| 20260504040010 | 4 | 30 | 8.0 | 17.7 | 0.00 | 0.03 | 0.00 | 82 | 1005.4 |
| 20260504034509 | 3 | 355 | 4.8 | 16.1 | 0.00 | 0.03 | 0.00 | 89 | 1005.4 |
| 20260504033010 | 3 | 11 | 6.4 | 12.9 | 0.00 | 0.03 | 0.00 | 92 | 1005.2 |
| 20260504031510 | 3 | 16 | 9.7 | 14.5 | 0.00 | 0.03 | 0.00 | 94 | 1005.1 |
| 20260504030008 | 3 | 343 | 0.0 | 6.4 | 0.00 | 0.03 | 0.00 | 95 | 1005.1 |
| 20260504024510 | 3 | 343 | 0.0 | 9.7 | 0.00 | 0.03 | 0.00 | 95 | 1005.0 |